CAL5336 PANC-KLAX

Flight info

Callsign CAL5336
Flight time 4h 40m
Altitude 35000
Route MDO B453 BOXER FOT ENI BURGL BAYST1
Aircraft B77L/H-SDE1E2E3FGHIJ2J3J4J5M1RWXY/LB1D1

Departure

Time 2026-04-25 00:43
Airport Ted Stevens Anchorage International Airport (PANC)

Arrival

Time 2026-04-25 05:23
Airport Los Angeles International Airport (KLAX)
Time Latitude Longitude Altitude Speed Heading
2026-04-24 23:32 61.17518 -149.99152 109 ft 0 kts 71°
2026-04-25 00:38 61.17520 -149.99140 110 ft 4 kts 71°
2026-04-25 00:38 61.17530 -149.99083 109 ft 4 kts 71°
2026-04-25 00:38 61.17524 -149.99026 108 ft 4 kts 125°
2026-04-25 00:39 61.17501 -149.98986 109 ft 4 kts 147°
2026-04-25 00:39 61.17457 -149.98945 108 ft 14 kts 157°
2026-04-25 00:39 61.17372 -149.98872 109 ft 12 kts 160°
2026-04-25 00:39 61.17291 -149.98816 112 ft 12 kts 161°
2026-04-25 00:40 61.17212 -149.98759 114 ft 10 kts 159°
2026-04-25 00:40 61.17146 -149.98727 127 ft 10 kts 195°
2026-04-25 00:40 61.17119 -149.98829 116 ft 9 kts 270°
2026-04-25 00:40 61.17120 -149.98955 117 ft 9 kts 272°
2026-04-25 00:41 61.17123 -149.99079 119 ft 9 kts 272°
2026-04-25 00:41 61.17125 -149.99203 123 ft 9 kts 271°
2026-04-25 00:41 61.17124 -149.99326 125 ft 9 kts 269°
2026-04-25 00:41 61.17124 -149.99453 127 ft 9 kts 270°
2026-04-25 00:42 61.17124 -149.99578 130 ft 9 kts 270°
2026-04-25 00:42 61.17125 -149.99702 132 ft 9 kts 270°
2026-04-25 00:42 61.17129 -149.99825 134 ft 9 kts 291°
2026-04-25 00:42 61.17182 -149.99888 137 ft 13 kts 342°
2026-04-25 00:43 61.17464 -150.00056 119 ft 82 kts 343°
2026-04-25 00:43 61.18274 -150.00510 129 ft 156 kts 344°
2026-04-25 00:43 61.19374 -150.01207 689 ft 170 kts 342°
2026-04-25 00:43 61.20515 -150.02081 1593 ft 179 kts 337°
2026-04-25 00:44 61.21708 -150.02945 2119 ft 191 kts 347°
2026-04-25 00:44 61.23082 -150.03746 2448 ft 221 kts 346°
2026-04-25 00:44 61.24660 -150.04726 2844 ft 247 kts 346°
2026-04-25 00:44 61.26353 -150.05781 3597 ft 260 kts 346°
2026-04-25 00:45 61.28129 -150.06857 4342 ft 270 kts 352°
2026-04-25 00:45 61.29989 -150.06664 5004 ft 269 kts 28°
2026-04-25 00:45 61.31418 -150.04353 5870 ft 258 kts 64°
2026-04-25 00:45 61.31904 -150.00942 6777 ft 241 kts 98°
2026-04-25 00:46 61.31563 -149.97536 7393 ft 245 kts 112°
2026-04-25 00:46 61.30954 -149.94225 8086 ft 252 kts 121°
2026-04-25 00:46 61.28630 -149.88567 9614 ft 262 kts 139°
2026-04-25 00:47 61.27304 -149.85957 10330 ft 271 kts 140°
2026-04-25 00:47 61.25866 -149.83146 10638 ft 296 kts 140°
2026-04-25 00:47 61.24291 -149.80052 10864 ft 324 kts 139°
2026-04-25 00:47 61.22594 -149.76682 11249 ft 346 kts 139°
2026-04-25 00:48 61.20840 -149.73159 12106 ft 355 kts 139°
2026-04-25 00:48 61.19054 -149.69547 13080 ft 361 kts 139°
2026-04-25 00:48 61.17274 -149.65937 14108 ft 365 kts 139°
2026-04-25 00:48 61.15428 -149.62185 15088 ft 367 kts 139°
2026-04-25 00:49 61.13606 -149.58475 16123 ft 369 kts 140°
2026-04-25 00:49 61.11778 -149.54736 17165 ft 369 kts 139°
2026-04-25 00:49 61.09941 -149.50984 17942 ft 376 kts 140°
2026-04-25 00:49 61.08063 -149.47187 18217 ft 379 kts 140°
2026-04-25 00:50 61.06183 -149.43386 18463 ft 375 kts 140°
2026-04-25 00:50 61.04314 -149.39618 18708 ft 375 kts 140°
2026-04-25 00:50 61.02339 -149.36144 18899 ft 374 kts 148°
2026-04-25 00:50 61.00124 -149.33299 19762 ft 372 kts 154°
2026-04-25 00:51 60.97885 -149.30818 20791 ft 370 kts 156°
2026-04-25 00:51 60.95568 -149.28339 21640 ft 373 kts 156°
2026-04-25 00:51 60.93250 -149.25841 22445 ft 377 kts 156°
2026-04-25 00:51 60.90950 -149.23370 23296 ft 379 kts 157°
2026-04-25 00:52 60.88628 -149.20869 24077 ft 381 kts 157°
2026-04-25 00:52 60.86268 -149.18272 24807 ft 384 kts 156°
2026-04-25 00:52 60.83938 -149.15666 25431 ft 388 kts 156°
2026-04-25 00:52 60.81528 -149.12967 26096 ft 390 kts 157°
2026-04-25 00:53 60.79120 -149.10353 26592 ft 392 kts 159°
2026-04-25 00:53 60.76643 -149.08066 27121 ft 395 kts 161°
2026-04-25 00:53 60.74132 -149.05955 27667 ft 397 kts 162°
2026-04-25 00:53 60.71606 -149.03843 28376 ft 397 kts 162°
2026-04-25 00:54 60.69017 -149.01690 29051 ft 399 kts 162°
2026-04-25 00:54 60.66432 -148.99552 29546 ft 401 kts 162°
2026-04-25 00:54 60.63871 -148.97179 29721 ft 401 kts 160°
2026-04-25 00:54 60.61286 -148.94898 29961 ft 407 kts 162°
2026-04-25 00:55 60.58701 -148.92611 30353 ft 413 kts 158°
2026-04-25 00:55 60.56228 -148.89454 31014 ft 415 kts 151°
2026-04-25 00:55 60.53981 -148.85832 31664 ft 415 kts 147°
2026-04-25 00:55 60.51834 -148.81800 32249 ft 421 kts 142°
2026-04-25 00:56 60.49892 -148.77324 32890 ft 420 kts 140°
2026-04-25 00:56 60.48014 -148.72838 33260 ft 423 kts 139°
2026-04-25 00:56 60.46100 -148.68271 33585 ft 427 kts 139°
2026-04-25 00:56 60.44176 -148.63691 34160 ft 423 kts 140°
2026-04-25 00:57 60.42265 -148.59183 34576 ft 421 kts 139°
2026-04-25 00:57 60.40347 -148.54662 34821 ft 425 kts 140°
2026-04-25 00:57 60.38412 -148.50106 35076 ft 429 kts 139°
2026-04-25 00:58 60.35138 -148.42429 35176 ft 433 kts 139°
2026-04-25 00:58 60.30597 -148.31826 35170 ft 425 kts 140°
2026-04-25 00:59 60.26709 -148.22815 35151 ft 426 kts 139°
2026-04-25 00:59 60.23466 -148.15308 35161 ft 428 kts 139°
2026-04-25 01:00 60.19545 -148.06284 35198 ft 430 kts 140°
2026-04-25 01:00 60.15583 -147.97187 35197 ft 432 kts 140°
2026-04-25 01:01 60.11619 -147.88126 35225 ft 432 kts 140°
2026-04-25 01:01 60.07654 -147.79101 35165 ft 430 kts 139°
2026-04-25 01:02 60.03704 -147.70131 35184 ft 428 kts 139°
2026-04-25 01:02 59.99817 -147.61353 35180 ft 427 kts 139°
2026-04-25 01:03 59.95858 -147.52451 35179 ft 426 kts 140°
2026-04-25 01:03 59.91894 -147.43566 35165 ft 427 kts 140°
2026-04-25 01:04 59.87932 -147.34717 35169 ft 428 kts 140°
2026-04-25 01:04 59.83963 -147.25892 35146 ft 429 kts 139°
2026-04-25 01:05 59.79965 -147.17035 35165 ft 430 kts 139°
2026-04-25 01:05 59.75948 -147.08171 35165 ft 432 kts 140°
2026-04-25 01:06 59.71950 -146.99381 35157 ft 433 kts 140°
2026-04-25 01:06 59.67910 -146.90532 35156 ft 433 kts 140°
2026-04-25 01:07 59.63870 -146.81717 35134 ft 433 kts 139°
2026-04-25 01:07 59.59805 -146.72881 35147 ft 433 kts 140°
2026-04-25 01:08 59.55772 -146.64151 35156 ft 433 kts 140°
2026-04-25 01:08 59.51703 -146.55375 35155 ft 434 kts 140°
2026-04-25 01:09 59.47629 -146.46618 35155 ft 434 kts 140°
2026-04-25 01:09 59.43537 -146.37858 35115 ft 433 kts 139°
2026-04-25 01:10 59.39598 -146.28846 35157 ft 437 kts 136°
2026-04-25 01:10 59.35767 -146.19639 35172 ft 438 kts 136°
2026-04-25 01:11 59.31900 -146.10385 35176 ft 439 kts 136°
2026-04-25 01:11 59.28021 -146.01154 35179 ft 439 kts 136°
2026-04-25 01:12 59.24127 -145.91933 35157 ft 439 kts 136°
2026-04-25 01:12 59.20231 -145.82748 35177 ft 439 kts 136°
2026-04-25 01:13 59.16331 -145.73592 35192 ft 440 kts 136°
2026-04-25 01:13 59.12435 -145.64477 35177 ft 440 kts 136°
2026-04-25 01:14 59.08510 -145.55326 35182 ft 439 kts 136°
2026-04-25 01:14 59.04590 -145.46225 35182 ft 438 kts 136°
2026-04-25 01:15 59.00675 -145.37172 35190 ft 438 kts 136°
2026-04-25 01:15 58.96788 -145.28222 35190 ft 437 kts 136°
2026-04-25 01:16 58.92839 -145.19163 35191 ft 437 kts 136°
2026-04-25 01:16 58.88907 -145.10177 35192 ft 437 kts 136°
2026-04-25 01:17 58.84996 -145.01273 35195 ft 437 kts 136°
2026-04-25 01:17 58.81027 -144.92276 35196 ft 437 kts 136°
2026-04-25 01:18 58.77064 -144.83323 35200 ft 439 kts 136°
2026-04-25 01:18 58.73112 -144.74429 35211 ft 440 kts 136°
2026-04-25 01:19 58.69122 -144.65483 35201 ft 441 kts 136°
2026-04-25 01:19 58.65113 -144.56530 35209 ft 442 kts 136°
2026-04-25 01:20 58.61090 -144.47578 35203 ft 442 kts 136°
2026-04-25 01:20 58.57062 -144.38650 35213 ft 442 kts 136°
2026-04-25 01:21 58.53073 -144.29844 35210 ft 442 kts 136°
2026-04-25 01:21 58.49009 -144.20907 35218 ft 443 kts 136°
2026-04-25 01:22 58.44997 -144.12116 35221 ft 443 kts 136°
2026-04-25 01:22 58.40915 -144.03206 35223 ft 442 kts 136°
2026-04-25 01:23 58.36856 -143.94381 35231 ft 443 kts 136°
2026-04-25 01:23 58.32794 -143.85584 35236 ft 444 kts 136°
2026-04-25 01:24 58.28700 -143.76748 35240 ft 444 kts 136°
2026-04-25 01:24 58.24641 -143.68023 35238 ft 444 kts 136°
2026-04-25 01:25 58.20502 -143.59160 35230 ft 444 kts 135°
2026-04-25 01:25 58.16398 -143.50402 35251 ft 445 kts 135°
2026-04-25 01:26 58.12306 -143.41704 35244 ft 445 kts 135°
2026-04-25 01:26 58.08177 -143.32961 35249 ft 446 kts 136°
2026-04-25 01:27 58.04040 -143.24232 35223 ft 445 kts 136°
2026-04-25 01:27 57.99903 -143.15537 35262 ft 444 kts 135°
2026-04-25 01:28 57.93722 -143.02609 35263 ft 444 kts 135°
2026-04-25 01:28 57.89587 -142.93996 35262 ft 444 kts 135°
2026-04-25 01:29 57.85429 -142.85371 35273 ft 444 kts 136°
2026-04-25 01:29 57.81286 -142.76809 35262 ft 443 kts 135°
2026-04-25 01:30 57.77152 -142.68295 35274 ft 443 kts 135°
2026-04-25 01:30 57.72992 -142.59761 35276 ft 443 kts 135°
2026-04-25 01:31 57.68829 -142.51251 35286 ft 444 kts 135°
2026-04-25 01:31 57.64645 -142.42730 35286 ft 444 kts 136°
2026-04-25 01:32 57.60467 -142.34251 35277 ft 444 kts 135°
2026-04-25 01:32 57.56281 -142.25787 35284 ft 444 kts 135°
2026-04-25 01:33 57.52107 -142.17379 35297 ft 444 kts 135°
2026-04-25 01:33 57.47926 -142.08986 35293 ft 444 kts 136°
2026-04-25 01:34 57.43691 -142.00518 35303 ft 444 kts 136°
2026-04-25 01:34 57.39476 -141.92118 35300 ft 444 kts 135°
2026-04-25 01:35 57.35260 -141.83747 35310 ft 444 kts 136°
2026-04-25 01:35 57.31062 -141.75443 35311 ft 445 kts 136°
2026-04-25 01:36 57.26832 -141.67105 35311 ft 445 kts 136°
2026-04-25 01:36 57.22584 -141.58761 35314 ft 445 kts 136°
2026-04-25 01:37 57.18342 -141.50458 35314 ft 445 kts 136°
2026-04-25 01:37 57.14086 -141.42161 35326 ft 445 kts 136°
2026-04-25 01:38 57.09833 -141.33897 35320 ft 445 kts 136°
2026-04-25 01:38 57.05576 -141.25654 35326 ft 445 kts 136°
2026-04-25 01:39 57.01301 -141.17406 35326 ft 445 kts 136°
2026-04-25 01:39 56.97053 -141.09240 35334 ft 445 kts 136°
2026-04-25 01:40 56.92779 -141.01053 35333 ft 445 kts 136°
2026-04-25 01:40 56.88523 -140.92928 35337 ft 445 kts 136°
2026-04-25 01:41 56.84212 -140.84729 35337 ft 445 kts 136°
2026-04-25 01:41 56.79932 -140.76618 35328 ft 445 kts 136°
2026-04-25 01:42 56.75617 -140.68468 35340 ft 445 kts 136°
2026-04-25 01:42 56.71331 -140.60400 35346 ft 446 kts 136°
2026-04-25 01:43 56.67010 -140.52296 35347 ft 446 kts 136°
2026-04-25 01:43 56.62681 -140.44205 35352 ft 446 kts 136°
2026-04-25 01:44 56.58340 -140.36121 35350 ft 446 kts 136°
2026-04-25 01:44 56.54020 -140.28103 35359 ft 446 kts 136°
2026-04-25 01:45 56.49645 -140.20010 35359 ft 447 kts 136°
2026-04-25 01:45 56.45293 -140.11989 35366 ft 447 kts 136°
2026-04-25 01:46 56.41665 -140.05325 35367 ft 447 kts 136°
2026-04-25 01:46 56.36613 -139.96076 35366 ft 446 kts 136°
2026-04-25 01:47 56.32983 -139.89454 35370 ft 446 kts 136°
2026-04-25 01:47 56.28594 -139.81471 35372 ft 446 kts 136°
2026-04-25 01:48 56.24230 -139.73560 35375 ft 446 kts 136°
2026-04-25 01:48 56.19850 -139.65649 35362 ft 446 kts 136°
2026-04-25 01:49 56.15470 -139.57765 35380 ft 446 kts 136°
2026-04-25 01:49 56.11089 -139.49905 35383 ft 446 kts 136°
2026-04-25 01:50 56.06718 -139.42091 35385 ft 446 kts 136°
2026-04-25 01:50 56.02320 -139.34256 35387 ft 446 kts 136°
2026-04-25 01:51 55.97916 -139.26437 35380 ft 446 kts 136°
2026-04-25 01:51 55.93513 -139.18643 35400 ft 446 kts 136°
2026-04-25 01:52 55.89099 -139.10860 35403 ft 446 kts 136°
2026-04-25 01:52 55.84710 -139.03144 35392 ft 446 kts 136°
2026-04-25 01:53 55.80291 -138.95402 35397 ft 446 kts 136°
2026-04-25 01:53 55.75868 -138.87682 35395 ft 445 kts 136°
2026-04-25 01:54 55.71465 -138.80019 35403 ft 445 kts 136°
2026-04-25 01:54 55.67030 -138.72328 35403 ft 445 kts 136°
2026-04-25 01:55 55.62587 -138.64648 35424 ft 448 kts 136°
2026-04-25 01:55 55.58157 -138.57017 35404 ft 448 kts 136°
2026-04-25 01:56 55.53658 -138.49293 35408 ft 448 kts 136°
2026-04-25 01:56 55.49184 -138.41637 35414 ft 448 kts 136°
2026-04-25 01:57 55.42466 -138.30187 35407 ft 448 kts 137°
2026-04-25 01:58 55.38010 -138.22627 35417 ft 447 kts 137°
2026-04-25 01:58 55.33523 -138.15037 35417 ft 447 kts 136°
2026-04-25 01:59 55.29041 -138.07480 35421 ft 447 kts 136°
2026-04-25 01:59 55.24554 -137.99941 35424 ft 447 kts 137°
2026-04-25 02:00 55.20054 -137.92405 35429 ft 447 kts 137°
2026-04-25 02:00 55.15547 -137.84882 35411 ft 447 kts 136°
2026-04-25 02:01 55.11073 -137.77438 35422 ft 447 kts 137°
2026-04-25 02:01 55.06565 -137.69962 35426 ft 447 kts 137°
2026-04-25 02:02 55.02052 -137.62502 35429 ft 447 kts 137°
2026-04-25 02:02 54.97524 -137.55042 35425 ft 447 kts 137°
2026-04-25 02:03 54.92996 -137.47606 35426 ft 447 kts 137°
2026-04-25 02:03 54.88469 -137.40195 35429 ft 447 kts 137°
2026-04-25 02:04 54.83952 -137.32826 35427 ft 447 kts 137°
2026-04-25 02:04 54.79412 -137.25441 35426 ft 447 kts 137°
2026-04-25 02:05 54.74865 -137.18071 35421 ft 447 kts 137°
2026-04-25 02:05 54.70313 -137.10715 35430 ft 447 kts 137°
2026-04-25 02:06 54.65786 -137.03424 35432 ft 447 kts 137°
2026-04-25 02:06 54.61231 -136.96110 35431 ft 447 kts 137°
2026-04-25 02:07 54.56666 -136.88804 35437 ft 447 kts 137°
2026-04-25 02:07 54.52108 -136.81534 35433 ft 447 kts 137°
2026-04-25 02:08 54.47541 -136.74270 35436 ft 448 kts 137°
2026-04-25 02:08 54.42959 -136.67006 35442 ft 448 kts 137°
2026-04-25 02:09 54.38363 -136.59744 35438 ft 449 kts 137°
2026-04-25 02:09 54.33763 -136.52499 35422 ft 449 kts 137°
2026-04-25 02:10 54.29157 -136.45267 35442 ft 449 kts 137°
2026-04-25 02:10 54.24540 -136.38040 35436 ft 450 kts 137°
2026-04-25 02:11 54.19915 -136.30823 35434 ft 450 kts 137°
2026-04-25 02:11 54.15304 -136.23651 35431 ft 450 kts 137°
2026-04-25 02:12 54.10678 -136.16478 35433 ft 450 kts 137°
2026-04-25 02:12 54.06038 -136.09303 35433 ft 450 kts 137°
2026-04-25 02:13 54.01391 -136.02142 35431 ft 450 kts 137°
2026-04-25 02:13 53.96457 -135.95633 35440 ft 449 kts 144°
2026-04-25 02:14 53.91318 -135.89553 35430 ft 450 kts 144°
2026-04-25 02:14 53.86231 -135.83507 35436 ft 450 kts 144°
2026-04-25 02:15 53.81087 -135.77383 35428 ft 451 kts 144°
2026-04-25 02:15 53.75950 -135.71277 35429 ft 451 kts 144°
2026-04-25 02:16 53.70815 -135.65191 35423 ft 451 kts 144°
2026-04-25 02:16 53.65695 -135.59143 35424 ft 451 kts 144°
2026-04-25 02:17 53.60554 -135.53089 35427 ft 451 kts 144°
2026-04-25 02:17 53.55405 -135.47044 35426 ft 451 kts 144°
2026-04-25 02:18 53.50238 -135.40996 35426 ft 451 kts 144°
2026-04-25 02:18 53.45078 -135.34974 35418 ft 452 kts 144°
2026-04-25 02:19 53.39910 -135.28961 35427 ft 452 kts 144°
2026-04-25 02:19 53.34745 -135.22969 35423 ft 452 kts 144°
2026-04-25 02:20 53.29560 -135.16972 35422 ft 452 kts 144°
2026-04-25 02:20 53.24384 -135.11005 35410 ft 452 kts 144°
2026-04-25 02:21 53.19237 -135.05087 35415 ft 453 kts 144°
2026-04-25 02:21 53.14038 -134.99127 35418 ft 453 kts 144°
2026-04-25 02:22 53.08869 -134.93219 35411 ft 454 kts 144°
2026-04-25 02:22 53.03635 -134.87252 35410 ft 454 kts 144°
2026-04-25 02:23 52.98466 -134.81382 35408 ft 454 kts 144°
2026-04-25 02:23 52.93198 -134.75423 35411 ft 454 kts 144°
2026-04-25 02:24 52.87970 -134.69524 35411 ft 455 kts 144°
2026-04-25 02:24 52.82732 -134.63631 35404 ft 455 kts 144°
2026-04-25 02:25 52.77518 -134.57780 35412 ft 455 kts 144°
2026-04-25 02:25 52.72280 -134.51920 35405 ft 455 kts 144°
2026-04-25 02:26 52.67029 -134.46062 35396 ft 455 kts 145°
2026-04-25 02:26 52.61780 -134.40224 35397 ft 455 kts 145°
2026-04-25 02:27 52.56528 -134.34398 35395 ft 455 kts 144°
2026-04-25 02:27 52.51276 -134.28590 35393 ft 455 kts 145°
2026-04-25 02:28 52.46054 -134.22833 35391 ft 454 kts 145°
2026-04-25 02:28 52.40800 -134.17058 35391 ft 454 kts 145°
2026-04-25 02:29 52.35540 -134.11293 35385 ft 454 kts 145°
2026-04-25 02:29 52.30306 -134.05579 35385 ft 455 kts 144°
2026-04-25 02:30 52.25018 -133.99809 35384 ft 455 kts 144°
2026-04-25 02:30 52.19815 -133.94151 35381 ft 454 kts 145°
2026-04-25 02:31 52.14520 -133.88415 35376 ft 454 kts 144°
2026-04-25 02:31 52.09250 -133.82719 35382 ft 455 kts 144°
2026-04-25 02:32 52.03967 -133.77030 35375 ft 456 kts 144°
2026-04-25 02:32 51.98668 -133.71322 35380 ft 456 kts 144°
2026-04-25 02:33 51.93368 -133.65656 35367 ft 456 kts 145°
2026-04-25 02:33 51.88061 -133.59996 35357 ft 457 kts 145°
2026-04-25 02:34 51.82741 -133.54325 35366 ft 458 kts 144°
2026-04-25 02:34 51.77440 -133.48701 35364 ft 458 kts 145°
2026-04-25 02:35 51.73030 -133.44028 35362 ft 458 kts 145°
2026-04-25 02:35 51.67665 -133.38351 35352 ft 457 kts 144°
2026-04-25 02:36 51.62328 -133.32729 35343 ft 457 kts 144°
2026-04-25 02:36 51.57004 -133.27133 35344 ft 457 kts 144°
2026-04-25 02:37 51.51680 -133.21559 35342 ft 457 kts 145°
2026-04-25 02:37 51.46349 -133.15979 35343 ft 458 kts 144°
2026-04-25 02:38 51.41012 -133.10419 35345 ft 461 kts 144°
2026-04-25 02:38 51.35614 -133.04811 35336 ft 462 kts 144°
2026-04-25 02:39 51.30205 -132.99204 35330 ft 463 kts 144°
2026-04-25 02:39 51.24848 -132.93671 35334 ft 462 kts 144°
2026-04-25 02:40 51.19449 -132.88111 35330 ft 463 kts 145°
2026-04-25 02:40 51.14017 -132.82530 35329 ft 464 kts 146°
2026-04-25 02:41 51.08557 -132.76928 35325 ft 465 kts 145°
2026-04-25 02:41 51.03144 -132.71401 35324 ft 465 kts 145°
2026-04-25 02:42 50.97656 -132.65793 35313 ft 466 kts 145°
2026-04-25 02:42 50.92211 -132.60292 35315 ft 467 kts 145°
2026-04-25 02:43 50.86728 -132.54760 35319 ft 466 kts 145°
2026-04-25 02:43 50.81251 -132.49229 35307 ft 467 kts 146°
2026-04-25 02:44 50.75790 -132.43742 35315 ft 468 kts 146°
2026-04-25 02:44 50.70310 -132.38248 35311 ft 468 kts 145°
2026-04-25 02:45 50.64793 -132.32728 35310 ft 469 kts 145°
2026-04-25 02:45 50.59270 -132.27217 35307 ft 468 kts 145°
2026-04-25 02:46 50.53766 -132.21752 35304 ft 468 kts 145°
2026-04-25 02:46 50.48244 -132.16271 35292 ft 469 kts 146°
2026-04-25 02:47 50.42745 -132.10840 35303 ft 471 kts 146°
2026-04-25 02:47 50.37178 -132.05346 35298 ft 473 kts 146°
2026-04-25 02:48 50.31587 -131.99849 35298 ft 475 kts 146°
2026-04-25 02:48 50.25977 -131.94346 35296 ft 475 kts 145°
2026-04-25 02:49 50.20371 -131.88869 35294 ft 475 kts 145°
2026-04-25 02:49 50.14677 -131.83605 35285 ft 477 kts 148°
2026-04-25 02:50 50.08946 -131.78550 35294 ft 477 kts 148°
2026-04-25 02:50 50.03149 -131.73380 35288 ft 477 kts 147°
2026-04-25 02:51 49.97454 -131.68297 35281 ft 477 kts 148°
2026-04-25 02:51 49.91652 -131.63179 35283 ft 478 kts 148°
2026-04-25 02:52 49.85829 -131.58049 35286 ft 478 kts 148°
2026-04-25 02:52 49.80036 -131.52962 35274 ft 479 kts 148°
2026-04-25 02:53 49.74271 -131.47906 35277 ft 481 kts 148°
2026-04-25 02:53 49.68378 -131.42760 35283 ft 484 kts 148°
2026-04-25 02:54 49.62567 -131.37696 35270 ft 486 kts 148°
2026-04-25 02:54 49.56647 -131.32541 35264 ft 486 kts 148°
2026-04-25 02:55 49.50751 -131.27437 35262 ft 486 kts 148°
2026-04-25 02:55 49.44854 -131.22334 35263 ft 486 kts 148°
2026-04-25 02:56 49.38952 -131.17240 35265 ft 485 kts 148°
2026-04-25 02:56 49.33051 -131.12174 35266 ft 486 kts 148°
2026-04-25 02:57 49.27155 -131.07126 35261 ft 486 kts 148°
2026-04-25 02:57 49.21276 -131.02098 35252 ft 487 kts 148°
2026-04-25 02:58 49.15356 -130.97053 35246 ft 488 kts 149°
2026-04-25 02:58 49.09408 -130.91995 35250 ft 490 kts 148°
2026-04-25 02:59 49.03434 -130.86923 35250 ft 492 kts 149°
2026-04-25 02:59 48.97435 -130.81848 35252 ft 493 kts 149°
2026-04-25 03:00 48.91433 -130.76798 35250 ft 493 kts 149°
2026-04-25 03:00 48.85466 -130.71790 35234 ft 493 kts 149°
2026-04-25 03:01 48.79457 -130.66765 35239 ft 493 kts 149°
2026-04-25 03:01 48.73455 -130.61759 35239 ft 492 kts 149°
2026-04-25 03:02 48.67447 -130.56756 35247 ft 492 kts 149°
2026-04-25 03:02 48.61441 -130.51767 35230 ft 493 kts 149°
2026-04-25 03:03 48.55418 -130.46777 35240 ft 493 kts 149°
2026-04-25 03:03 48.49391 -130.41795 35237 ft 493 kts 149°
2026-04-25 03:04 48.43359 -130.36831 35233 ft 495 kts 149°
2026-04-25 03:04 48.37336 -130.31888 35228 ft 496 kts 149°
2026-04-25 03:05 48.28231 -130.24436 35230 ft 496 kts 149°
2026-04-25 03:05 48.22198 -130.19511 35216 ft 496 kts 149°
2026-04-25 03:06 48.16089 -130.14542 35212 ft 496 kts 150°
2026-04-25 03:06 48.10062 -130.09646 35208 ft 496 kts 150°
2026-04-25 03:07 48.03991 -130.04729 35204 ft 496 kts 150°
2026-04-25 03:07 47.97966 -129.99865 35215 ft 496 kts 150°
2026-04-25 03:08 47.91823 -129.94916 35214 ft 497 kts 150°
2026-04-25 03:08 47.85805 -129.90077 35207 ft 497 kts 150°
2026-04-25 03:09 47.79645 -129.85144 35201 ft 497 kts 150°
2026-04-25 03:09 47.73547 -129.80269 35209 ft 498 kts 150°
2026-04-25 03:10 47.67479 -129.75431 35213 ft 498 kts 150°
2026-04-25 03:10 47.61372 -129.70572 35200 ft 498 kts 150°
2026-04-25 03:11 47.55254 -129.65714 35196 ft 498 kts 150°
2026-04-25 03:11 47.49135 -129.60867 35199 ft 499 kts 150°
2026-04-25 03:12 47.43004 -129.56023 35195 ft 500 kts 150°
2026-04-25 03:12 47.36892 -129.51206 35194 ft 500 kts 150°
2026-04-25 03:13 47.30730 -129.46363 35192 ft 501 kts 150°
2026-04-25 03:13 47.24648 -129.41590 35194 ft 501 kts 150°
2026-04-25 03:14 47.18462 -129.36758 35189 ft 500 kts 151°
2026-04-25 03:14 47.12314 -129.31968 35184 ft 499 kts 151°
2026-04-25 03:15 47.06159 -129.27182 35191 ft 499 kts 151°
2026-04-25 03:15 47.00021 -129.22421 35185 ft 499 kts 151°
2026-04-25 03:16 46.93906 -129.17690 35183 ft 500 kts 151°
2026-04-25 03:16 46.87739 -129.12932 35180 ft 501 kts 151°
2026-04-25 03:17 46.81549 -129.08169 35177 ft 502 kts 151°
2026-04-25 03:17 46.75352 -129.03412 35180 ft 504 kts 151°
2026-04-25 03:18 46.69137 -128.98655 35176 ft 504 kts 151°
2026-04-25 03:18 46.62945 -128.93927 35176 ft 505 kts 151°
2026-04-25 03:19 46.56707 -128.89176 35172 ft 506 kts 151°
2026-04-25 03:19 46.50465 -128.84436 35172 ft 507 kts 151°
2026-04-25 03:20 46.44214 -128.79701 35171 ft 507 kts 151°
2026-04-25 03:20 46.39002 -128.75762 35167 ft 507 kts 151°
2026-04-25 03:21 46.31733 -128.70282 35165 ft 506 kts 151°
2026-04-25 03:21 46.25476 -128.65580 35168 ft 506 kts 151°
2026-04-25 03:22 46.20274 -128.61678 35162 ft 507 kts 151°
2026-04-25 03:22 46.14012 -128.56994 35162 ft 507 kts 151°
2026-04-25 03:23 46.07737 -128.52311 35174 ft 507 kts 152°
2026-04-25 03:23 46.01471 -128.47648 35158 ft 506 kts 152°
2026-04-25 03:24 45.95213 -128.43003 35153 ft 506 kts 152°
2026-04-25 03:24 45.89000 -128.38402 35154 ft 505 kts 152°
2026-04-25 03:25 45.82745 -128.33782 35152 ft 506 kts 152°
2026-04-25 03:25 45.76473 -128.29161 35156 ft 507 kts 152°
2026-04-25 03:26 45.70187 -128.24542 35150 ft 508 kts 152°
2026-04-25 03:26 45.63892 -128.19928 35150 ft 509 kts 152°
2026-04-25 03:27 45.57585 -128.15317 35147 ft 510 kts 152°
2026-04-25 03:27 45.51268 -128.10711 35147 ft 510 kts 152°
2026-04-25 03:28 45.44980 -128.06135 35137 ft 509 kts 152°
2026-04-25 03:28 45.38676 -128.01562 35141 ft 507 kts 152°
2026-04-25 03:29 45.32383 -127.97009 35137 ft 506 kts 152°
2026-04-25 03:29 45.26112 -127.92482 35138 ft 505 kts 152°
2026-04-25 03:30 45.19847 -127.87970 35139 ft 505 kts 152°
2026-04-25 03:30 45.13568 -127.83459 35137 ft 505 kts 153°
2026-04-25 03:31 45.07363 -127.79013 35141 ft 507 kts 153°
2026-04-25 03:31 45.01021 -127.74479 35131 ft 508 kts 153°
2026-04-25 03:32 44.94719 -127.69986 35128 ft 508 kts 153°
2026-04-25 03:32 44.88384 -127.65480 35112 ft 509 kts 153°
2026-04-25 03:33 44.82068 -127.60999 35124 ft 507 kts 153°
2026-04-25 03:33 44.75752 -127.56529 35121 ft 506 kts 153°
2026-04-25 03:34 44.69496 -127.52112 35119 ft 506 kts 153°
2026-04-25 03:34 44.63200 -127.47678 35118 ft 506 kts 153°
2026-04-25 03:35 44.56910 -127.43259 35118 ft 505 kts 153°
2026-04-25 03:35 44.50615 -127.38846 35111 ft 505 kts 153°
2026-04-25 03:36 44.44356 -127.34470 35112 ft 506 kts 153°
2026-04-25 03:36 44.38053 -127.30074 35108 ft 506 kts 153°
2026-04-25 03:37 44.31725 -127.25671 35109 ft 506 kts 153°
2026-04-25 03:37 44.25414 -127.21292 35103 ft 506 kts 153°
2026-04-25 03:38 44.19155 -127.16956 35100 ft 505 kts 153°
2026-04-25 03:38 44.12847 -127.12599 35097 ft 505 kts 153°
2026-04-25 03:39 44.06548 -127.08258 35092 ft 505 kts 153°
2026-04-25 03:39 44.00248 -127.03926 35092 ft 505 kts 153°
2026-04-25 03:40 43.93928 -126.99591 35089 ft 505 kts 153°
2026-04-25 03:40 43.87660 -126.95303 35084 ft 506 kts 153°
2026-04-25 03:41 43.81350 -126.90995 35077 ft 506 kts 154°
2026-04-25 03:41 43.75053 -126.86706 35064 ft 506 kts 154°
2026-04-25 03:42 43.68704 -126.82394 35070 ft 506 kts 153°
2026-04-25 03:42 43.62393 -126.78115 35069 ft 506 kts 154°
2026-04-25 03:43 43.56073 -126.73840 35062 ft 506 kts 154°
2026-04-25 03:43 43.49747 -126.69571 35063 ft 505 kts 154°
2026-04-25 03:44 43.43421 -126.65313 35063 ft 505 kts 154°
2026-04-25 03:44 43.37142 -126.61118 35053 ft 505 kts 154°
2026-04-25 03:45 43.30819 -126.56914 35055 ft 504 kts 154°
2026-04-25 03:45 43.24500 -126.52719 35053 ft 504 kts 154°
2026-04-25 03:46 43.18195 -126.48541 35033 ft 503 kts 154°
2026-04-25 03:46 43.11913 -126.44384 35037 ft 502 kts 154°
2026-04-25 03:47 43.05630 -126.40235 35043 ft 502 kts 154°
2026-04-25 03:47 42.99330 -126.36086 35043 ft 502 kts 154°
2026-04-25 03:48 42.93021 -126.31942 35037 ft 502 kts 154°
2026-04-25 03:48 42.86727 -126.27815 35037 ft 502 kts 154°
2026-04-25 03:49 42.80430 -126.23697 35035 ft 501 kts 154°
2026-04-25 03:49 42.74164 -126.19604 35031 ft 501 kts 154°
2026-04-25 03:50 42.68205 -126.14733 35027 ft 499 kts 143°
2026-04-25 03:50 42.62607 -126.09116 35014 ft 501 kts 143°
2026-04-25 03:51 42.57021 -126.03551 35023 ft 501 kts 143°
2026-04-25 03:51 42.51381 -125.97981 35025 ft 500 kts 143°
2026-04-25 03:52 42.45729 -125.92439 35017 ft 499 kts 143°
2026-04-25 03:52 42.40138 -125.86975 35014 ft 498 kts 144°
2026-04-25 03:53 42.34509 -125.81486 35007 ft 499 kts 143°
2026-04-25 03:53 42.28881 -125.76005 35006 ft 499 kts 144°
2026-04-25 03:54 42.23256 -125.70538 35207 ft 494 kts 144°
2026-04-25 03:54 42.20469 -125.67837 35444 ft 493 kts 144°
2026-04-25 03:54 42.17682 -125.65137 35696 ft 493 kts 144°
2026-04-25 03:55 42.14905 -125.62449 35939 ft 495 kts 144°
2026-04-25 03:55 42.12088 -125.59724 36192 ft 495 kts 144°
2026-04-25 03:55 42.09291 -125.57022 36454 ft 495 kts 145°
2026-04-25 03:55 42.06485 -125.54317 36699 ft 496 kts 145°
2026-04-25 03:56 42.03683 -125.51616 36906 ft 496 kts 145°
2026-04-25 03:56 42.00869 -125.48905 36935 ft 499 kts 145°
2026-04-25 03:56 41.95277 -125.43534 36977 ft 496 kts 145°
2026-04-25 03:57 41.89647 -125.38139 36984 ft 492 kts 146°
2026-04-25 03:57 41.84095 -125.32829 36995 ft 489 kts 145°
2026-04-25 03:58 41.78582 -125.27560 36992 ft 489 kts 146°
2026-04-25 03:58 41.73019 -125.22267 36992 ft 491 kts 146°
2026-04-25 03:59 41.67436 -125.16965 36988 ft 492 kts 146°
2026-04-25 03:59 41.61860 -125.11678 36992 ft 492 kts 146°
2026-04-25 04:00 41.56309 -125.06419 36990 ft 492 kts 146°
2026-04-25 04:00 41.50709 -125.01132 36991 ft 491 kts 146°
2026-04-25 04:01 41.45126 -124.95868 36989 ft 490 kts 146°
2026-04-25 04:01 41.39557 -124.90633 36984 ft 490 kts 146°
2026-04-25 04:02 41.33985 -124.85407 36991 ft 489 kts 146°
2026-04-25 04:02 41.28406 -124.80185 36989 ft 489 kts 146°
2026-04-25 04:03 41.22839 -124.74983 36991 ft 489 kts 146°
2026-04-25 04:03 41.17298 -124.69816 36993 ft 490 kts 146°
2026-04-25 04:04 41.11758 -124.64663 36991 ft 490 kts 146°
2026-04-25 04:04 41.06125 -124.59434 36989 ft 490 kts 146°
2026-04-25 04:05 41.00536 -124.54256 36992 ft 490 kts 147°
2026-04-25 04:05 40.94938 -124.49080 36996 ft 491 kts 147°
2026-04-25 04:06 40.89336 -124.43912 36995 ft 491 kts 147°
2026-04-25 04:06 40.83749 -124.38771 36986 ft 492 kts 147°
2026-04-25 04:07 40.78130 -124.33607 36997 ft 492 kts 147°
2026-04-25 04:07 40.72501 -124.28442 36996 ft 492 kts 147°
2026-04-25 04:08 40.66830 -124.23420 37001 ft 490 kts 152°
2026-04-25 04:08 40.60744 -124.19500 37003 ft 488 kts 158°
2026-04-25 04:09 40.55580 -124.16436 36994 ft 489 kts 159°
2026-04-25 04:09 40.48370 -124.12123 37000 ft 490 kts 158°
2026-04-25 04:10 40.42177 -124.08384 36997 ft 490 kts 158°
2026-04-25 04:10 40.37022 -124.05266 36987 ft 490 kts 158°
2026-04-25 04:11 40.27743 -123.99669 36978 ft 490 kts 158°
2026-04-25 04:12 40.21494 -123.95911 36951 ft 491 kts 159°
2026-04-25 04:12 40.15270 -123.92176 36958 ft 491 kts 159°
2026-04-25 04:13 40.09126 -123.88497 36953 ft 491 kts 159°
2026-04-25 04:13 40.02890 -123.84770 36949 ft 491 kts 159°
2026-04-25 04:14 39.96720 -123.81090 36941 ft 491 kts 159°
2026-04-25 04:14 39.90449 -123.77357 36940 ft 491 kts 159°
2026-04-25 04:15 39.84220 -123.73658 36939 ft 491 kts 159°
2026-04-25 04:15 39.78109 -123.69908 36943 ft 494 kts 155°
2026-04-25 04:16 39.72365 -123.64889 36943 ft 497 kts 147°
2026-04-25 04:16 39.66763 -123.59559 36939 ft 498 kts 147°
2026-04-25 04:17 39.61212 -123.54335 36935 ft 498 kts 148°
2026-04-25 04:17 39.55521 -123.49033 36937 ft 498 kts 148°
2026-04-25 04:18 39.49926 -123.43844 36931 ft 497 kts 148°
2026-04-25 04:18 39.44289 -123.38627 36931 ft 497 kts 148°
2026-04-25 04:19 39.38658 -123.33425 36927 ft 496 kts 148°
2026-04-25 04:19 39.33034 -123.28239 36946 ft 496 kts 148°
2026-04-25 04:20 39.27451 -123.23099 36945 ft 495 kts 148°
2026-04-25 04:20 39.21844 -123.17947 36951 ft 495 kts 148°
2026-04-25 04:21 39.16231 -123.12801 36950 ft 495 kts 148°
2026-04-25 04:21 39.10610 -123.07660 36950 ft 495 kts 148°
2026-04-25 04:22 39.04988 -123.02525 36933 ft 495 kts 148°
2026-04-25 04:22 38.99370 -122.97404 36941 ft 494 kts 148°
2026-04-25 04:23 38.93751 -122.92294 36924 ft 494 kts 148°
2026-04-25 04:23 38.88169 -122.87227 36918 ft 494 kts 149°
2026-04-25 04:24 38.82550 -122.82137 36914 ft 494 kts 149°
2026-04-25 04:24 38.76922 -122.77049 36913 ft 494 kts 149°
2026-04-25 04:25 38.71294 -122.71970 36921 ft 495 kts 149°
2026-04-25 04:25 38.65680 -122.66915 36930 ft 495 kts 149°
2026-04-25 04:26 38.60046 -122.61850 36930 ft 495 kts 149°
2026-04-25 04:26 38.54393 -122.56778 36926 ft 495 kts 149°
2026-04-25 04:27 38.48823 -122.51790 36938 ft 495 kts 149°
2026-04-25 04:27 38.43142 -122.46717 36950 ft 495 kts 149°
2026-04-25 04:28 38.37500 -122.41684 36948 ft 496 kts 149°
2026-04-25 04:28 38.31830 -122.36635 36959 ft 496 kts 149°
2026-04-25 04:29 38.26174 -122.31610 36971 ft 496 kts 150°
2026-04-25 04:29 38.20526 -122.26603 36964 ft 497 kts 150°
2026-04-25 04:30 38.14844 -122.21577 36964 ft 498 kts 150°
2026-04-25 04:30 38.09143 -122.16541 36963 ft 499 kts 150°
2026-04-25 04:31 38.03433 -122.11505 36970 ft 499 kts 150°
2026-04-25 04:31 37.97733 -122.06489 36987 ft 498 kts 150°
2026-04-25 04:32 37.92105 -122.01545 36937 ft 498 kts 151°
2026-04-25 04:32 37.86360 -121.96513 36960 ft 498 kts 151°
2026-04-25 04:33 37.80644 -121.91514 36963 ft 499 kts 151°
2026-04-25 04:33 37.74924 -121.86519 36965 ft 500 kts 152°
2026-04-25 04:34 37.69187 -121.81520 36979 ft 501 kts 152°
2026-04-25 04:34 37.63513 -121.76584 36982 ft 502 kts 151°
2026-04-25 04:35 37.57718 -121.71552 36960 ft 502 kts 152°
2026-04-25 04:35 37.51953 -121.66557 36955 ft 503 kts 152°
2026-04-25 04:36 37.46183 -121.61567 36931 ft 503 kts 152°
2026-04-25 04:36 37.40406 -121.56581 36965 ft 504 kts 152°
2026-04-25 04:37 37.34613 -121.51593 36966 ft 505 kts 152°
2026-04-25 04:37 37.28838 -121.46624 36912 ft 506 kts 153°
2026-04-25 04:38 37.23030 -121.41639 36952 ft 506 kts 153°
2026-04-25 04:38 37.17211 -121.36656 36968 ft 506 kts 153°
2026-04-25 04:39 37.11380 -121.31672 36959 ft 507 kts 153°
2026-04-25 04:39 37.05547 -121.26690 36986 ft 508 kts 153°
2026-04-25 04:40 36.99692 -121.21705 36987 ft 509 kts 153°
2026-04-25 04:40 36.93834 -121.16724 36972 ft 509 kts 154°
2026-04-25 04:41 36.88017 -121.11787 36981 ft 509 kts 154°
2026-04-25 04:41 36.82151 -121.06820 36961 ft 509 kts 154°
2026-04-25 04:42 36.76286 -121.01863 36948 ft 509 kts 154°
2026-04-25 04:42 36.70425 -120.96917 36968 ft 509 kts 153°
2026-04-25 04:43 36.64550 -120.91969 36949 ft 509 kts 154°
2026-04-25 04:43 36.58683 -120.87036 36937 ft 508 kts 154°
2026-04-25 04:44 36.52817 -120.82113 36943 ft 508 kts 154°
2026-04-25 04:44 36.46992 -120.77237 36939 ft 508 kts 154°
2026-04-25 04:45 36.41130 -120.72335 36933 ft 508 kts 154°
2026-04-25 04:45 36.35238 -120.67420 36933 ft 508 kts 154°
2026-04-25 04:46 36.29355 -120.62520 36927 ft 508 kts 154°
2026-04-25 04:46 36.23516 -120.57665 36924 ft 508 kts 154°
2026-04-25 04:47 36.17671 -120.52814 36929 ft 508 kts 154°
2026-04-25 04:47 36.11791 -120.47944 36927 ft 508 kts 154°
2026-04-25 04:48 36.05902 -120.43074 36940 ft 507 kts 154°
2026-04-25 04:48 36.00027 -120.38227 36949 ft 507 kts 155°
2026-04-25 04:49 35.94171 -120.33407 36898 ft 507 kts 155°
2026-04-25 04:49 35.88316 -120.28587 36943 ft 507 kts 155°
2026-04-25 04:50 35.82447 -120.23769 36930 ft 507 kts 155°
2026-04-25 04:50 35.76568 -120.18952 36934 ft 507 kts 155°
2026-04-25 04:51 35.70679 -120.14134 36916 ft 507 kts 155°
2026-04-25 04:51 35.64812 -120.09366 36931 ft 505 kts 156°
2026-04-25 04:52 35.58852 -120.04855 36926 ft 504 kts 158°
2026-04-25 04:52 35.52857 -120.00413 36914 ft 503 kts 158°
2026-04-25 04:53 35.46861 -119.95924 36926 ft 504 kts 158°
2026-04-25 04:53 35.40876 -119.91420 36902 ft 504 kts 158°
2026-04-25 04:54 35.34902 -119.86932 36924 ft 503 kts 158°
2026-04-25 04:54 35.28923 -119.82450 36917 ft 503 kts 158°
2026-04-25 04:55 35.23209 -119.77444 36860 ft 508 kts 151°
2026-04-25 04:55 35.20470 -119.74778 36554 ft 499 kts 151°
2026-04-25 04:55 35.18713 -119.73056 36180 ft 496 kts 151°
2026-04-25 04:55 35.15981 -119.70410 35302 ft 498 kts 151°
2026-04-25 04:56 35.13217 -119.67788 34372 ft 502 kts 151°
2026-04-25 04:56 35.10440 -119.65189 33373 ft 505 kts 151°
2026-04-25 04:56 35.07640 -119.62587 32175 ft 510 kts 150°
2026-04-25 04:56 35.04786 -119.59945 30886 ft 517 kts 149°
2026-04-25 04:57 35.01908 -119.57277 29654 ft 522 kts 148°
2026-04-25 04:57 34.99026 -119.54595 28776 ft 517 kts 148°
2026-04-25 04:57 34.96187 -119.51952 28050 ft 509 kts 148°
2026-04-25 04:57 34.93402 -119.49365 27346 ft 503 kts 148°
2026-04-25 04:58 34.90605 -119.46781 26627 ft 496 kts 149°
2026-04-25 04:58 34.87861 -119.44302 25925 ft 491 kts 149°
2026-04-25 04:58 34.85133 -119.41874 25236 ft 486 kts 149°
2026-04-25 04:58 34.82390 -119.39439 24603 ft 481 kts 149°
2026-04-25 04:59 34.79747 -119.37085 24304 ft 469 kts 149°
2026-04-25 04:59 34.77179 -119.34789 24157 ft 454 kts 149°
2026-04-25 04:59 34.74653 -119.32532 23993 ft 441 kts 149°
2026-04-25 04:59 34.72220 -119.30392 23757 ft 431 kts 150°
2026-04-25 05:00 34.69776 -119.28266 23405 ft 425 kts 150°
2026-04-25 05:00 34.67387 -119.26188 22908 ft 422 kts 150°
2026-04-25 05:00 34.65010 -119.24118 22386 ft 420 kts 150°
2026-04-25 05:00 34.62626 -119.22055 21823 ft 419 kts 150°
2026-04-25 05:01 34.60299 -119.20052 21373 ft 416 kts 150°
2026-04-25 05:01 34.57936 -119.18018 20991 ft 411 kts 150°
2026-04-25 05:01 34.55620 -119.16017 20576 ft 407 kts 149°
2026-04-25 05:01 34.53342 -119.14007 20152 ft 404 kts 149°
2026-04-25 05:02 34.51079 -119.11994 19734 ft 401 kts 148°
2026-04-25 05:02 34.48832 -119.09996 19324 ft 397 kts 149°
2026-04-25 05:02 34.46616 -119.08030 18930 ft 393 kts 149°
2026-04-25 05:02 34.44416 -119.06086 18518 ft 390 kts 149°
2026-04-25 05:03 34.42219 -119.04168 18089 ft 387 kts 149°
2026-04-25 05:03 34.40038 -119.02284 17581 ft 384 kts 149°
2026-04-25 05:03 34.37866 -119.00408 17124 ft 381 kts 149°
2026-04-25 05:03 34.35716 -118.98549 16659 ft 378 kts 149°
2026-04-25 05:04 34.33611 -118.96719 16197 ft 375 kts 148°
2026-04-25 05:04 34.31511 -118.94822 15720 ft 372 kts 147°
2026-04-25 05:04 34.29446 -118.92931 15212 ft 371 kts 147°
2026-04-25 05:04 34.27393 -118.91059 14754 ft 368 kts 147°
2026-04-25 05:05 34.25374 -118.89227 14310 ft 365 kts 147°
2026-04-25 05:05 34.23354 -118.87376 13888 ft 362 kts 147°
2026-04-25 05:05 34.21355 -118.85536 13469 ft 358 kts 147°
2026-04-25 05:05 34.19435 -118.83768 13343 ft 345 kts 147°
2026-04-25 05:06 34.17537 -118.82023 13209 ft 332 kts 147°
2026-04-25 05:06 34.15754 -118.80345 12956 ft 326 kts 144°
2026-04-25 05:06 34.14037 -118.78514 12507 ft 325 kts 141°
2026-04-25 05:06 34.12388 -118.76673 12162 ft 321 kts 141°
2026-04-25 05:07 34.10771 -118.74873 11834 ft 316 kts 141°
2026-04-25 05:07 34.09144 -118.73083 11503 ft 311 kts 141°
2026-04-25 05:07 34.07548 -118.71342 11175 ft 306 kts 141°
2026-04-25 05:07 34.05997 -118.69658 10907 ft 303 kts 141°
2026-04-25 05:08 34.04422 -118.67946 10612 ft 303 kts 140°
2026-04-25 05:08 34.03149 -118.65990 10279 ft 297 kts 115°
2026-04-25 05:08 34.02651 -118.63607 10015 ft 292 kts 96°
2026-04-25 05:08 34.02456 -118.61195 9724 ft 288 kts 96°
2026-04-25 05:09 34.02241 -118.58795 9411 ft 288 kts 97°
2026-04-25 05:09 34.02018 -118.56382 9111 ft 287 kts 97°
2026-04-25 05:09 34.01798 -118.54025 8841 ft 283 kts 97°
2026-04-25 05:09 34.01577 -118.51655 8605 ft 282 kts 97°
2026-04-25 05:10 34.01364 -118.49387 8388 ft 275 kts 97°
2026-04-25 05:10 34.01149 -118.47106 8132 ft 268 kts 97°
2026-04-25 05:10 34.00706 -118.45009 7926 ft 251 kts 120°
2026-04-25 05:10 33.99772 -118.43270 7843 ft 249 kts 125°
2026-04-25 05:11 33.98834 -118.41511 7738 ft 250 kts 124°
2026-04-25 05:11 33.97907 -118.39741 7603 ft 248 kts 123°
2026-04-25 05:11 33.96993 -118.37990 7482 ft 246 kts 123°
2026-04-25 05:12 33.95197 -118.34552 7258 ft 243 kts 124°
2026-04-25 05:12 33.94277 -118.32792 7138 ft 241 kts 124°
2026-04-25 05:12 33.93398 -118.31078 7016 ft 239 kts 118°
2026-04-25 05:12 33.92809 -118.29204 6855 ft 240 kts 107°
2026-04-25 05:13 33.92363 -118.27288 6725 ft 241 kts 106°
2026-04-25 05:13 33.91911 -118.25367 6567 ft 242 kts 107°
2026-04-25 05:13 33.91432 -118.23410 6416 ft 243 kts 107°
2026-04-25 05:13 33.90946 -118.21461 6257 ft 244 kts 108°
2026-04-25 05:14 33.90452 -118.19483 6067 ft 243 kts 106°
2026-04-25 05:14 33.90322 -118.17494 5887 ft 238 kts 82°
2026-04-25 05:14 33.90570 -118.15545 5739 ft 235 kts 82°
2026-04-25 05:15 33.90977 -118.11623 5433 ft 236 kts 83°
2026-04-25 05:15 33.91172 -118.09662 5285 ft 236 kts 83°
2026-04-25 05:15 33.91364 -118.07723 5148 ft 235 kts 83°
2026-04-25 05:15 33.91560 -118.05761 5082 ft 230 kts 83°
2026-04-25 05:16 33.91762 -118.03876 5027 ft 229 kts 81°
2026-04-25 05:16 33.92319 -118.02114 5011 ft 230 kts 51°
2026-04-25 05:16 33.93590 -118.00949 4950 ft 234 kts 19°
2026-04-25 05:16 33.95200 -118.00749 4730 ft 234 kts 347°
2026-04-25 05:17 33.96620 -118.01587 4490 ft 227 kts 314°
2026-04-25 05:17 33.97379 -118.03175 4209 ft 219 kts 279°
2026-04-25 05:17 33.97291 -118.04981 3918 ft 215 kts 257°
2026-04-25 05:17 33.97006 -118.06746 3700 ft 218 kts 261°
2026-04-25 05:18 33.96796 -118.08582 3452 ft 223 kts 262°
2026-04-25 05:18 33.96601 -118.10438 3210 ft 223 kts 262°
2026-04-25 05:18 33.96412 -118.12271 3055 ft 216 kts 262°
2026-04-25 05:18 33.96229 -118.14048 3030 ft 214 kts 262°
2026-04-25 05:19 33.96043 -118.15852 3024 ft 218 kts 262°
2026-04-25 05:19 33.95855 -118.17675 3030 ft 221 kts 262°
2026-04-25 05:19 33.95669 -118.19493 3003 ft 212 kts 262°
2026-04-25 05:19 33.95495 -118.21189 2966 ft 199 kts 262°
2026-04-25 05:20 33.95327 -118.22830 2684 ft 196 kts 261°
2026-04-25 05:20 33.95160 -118.24439 2418 ft 190 kts 262°
2026-04-25 05:20 33.95001 -118.25991 2185 ft 184 kts 261°
2026-04-25 05:20 33.94851 -118.27457 1920 ft 171 kts 261°
2026-04-25 05:21 33.94714 -118.28791 1696 ft 149 kts 260°
2026-04-25 05:21 33.94593 -118.29972 1498 ft 140 kts 261°
2026-04-25 05:21 33.94472 -118.31141 1335 ft 140 kts 261°
2026-04-25 05:21 33.94350 -118.32278 1164 ft 131 kts 261°
2026-04-25 05:22 33.94232 -118.33359 903 ft 129 kts 259°
2026-04-25 05:22 33.94118 -118.34442 763 ft 131 kts 259°
2026-04-25 05:22 33.94010 -118.35513 687 ft 131 kts 263°
2026-04-25 05:22 33.93903 -118.36595 471 ft 127 kts 258°
2026-04-25 05:23 33.93799 -118.37610 241 ft 118 kts 259°
2026-04-25 05:23 33.93704 -118.38583 103 ft 112 kts 258°
2026-04-25 05:23 33.93616 -118.39396 98 ft 82 kts 263°
2026-04-25 05:23 33.93563 -118.39929 101 ft 39 kts 262°
2026-04-25 05:24 33.93517 -118.40132 101 ft 22 kts 251°
2026-04-25 05:24 33.93468 -118.40214 99 ft 6 kts 182°
2026-04-25 05:24 33.93429 -118.40182 101 ft 8 kts 126°
2026-04-25 05:24 33.93424 -118.40138 101 ft 6 kts 86°
2026-04-25 05:25 33.93429 -118.40080 98 ft 8 kts 82°
2026-04-25 05:25 33.93437 -118.40010 98 ft 9 kts 83°
2026-04-25 05:25 33.93443 -118.39948 99 ft 8 kts 83°
2026-04-25 05:25 33.93450 -118.39879 98 ft 9 kts 83°
2026-04-25 05:26 33.93459 -118.39793 100 ft 11 kts 83°
2026-04-25 05:26 33.93469 -118.39695 98 ft 13 kts 83°
2026-04-25 05:26 33.93480 -118.39587 100 ft 14 kts 83°
2026-04-25 05:26 33.93491 -118.39480 98 ft 13 kts 83°
2026-04-25 05:27 33.93500 -118.39394 98 ft 8 kts 83°
2026-04-25 05:27 33.93490 -118.39348 100 ft 6 kts 137°
2026-04-25 05:27 33.93446 -118.39338 98 ft 7 kts 176°
2026-04-25 05:27 33.93392 -118.39336 98 ft 8 kts 179°
2026-04-25 05:28 33.93363 -118.39335 100 ft 0 kts 180°